[[{"header":{"parameterUnit":"m.s-1","parameterCategory":1,"la1":30.2991,"la2":30.254,"lo1":-89.0895,"lo2":-89.0444,"dy":0.0017,"dx":0.0017,"nx":28,"ny":28,"refTime":"2024-10-15T03:00:00:Z","depth":0,"parameterNumber":2,"parameterNumberName":"U-component_of_WINDS"},"data":[0,0,0,0,0,0,0,0,0,0,0,0,0,0,0,0,0,0,0,0,0,0,0,0,0,0,0,0,0,0,0,0,0,0,0,0,0,0,0,0,0,0,0,0,0,0,0,0,0,0,0,0,0,0,0,0,0,0,-0.4017,-0.4017,0,-0.405,-0.405,-0.4051,-0.408,-0.408,-0.4081,-0.4081,-0.4113,-0.4114,-0.4114,0,0,0,0,0,0,0,0,0,0,0,0,0,-0.3976,-0.3976,-0.4017,-0.4017,-0.4017,-0.405,-0.405,-0.4051,-0.408,-0.408,-0.4081,-0.4081,-0.4113,-0.4114,-0.4114,0,0,0,0,0,0,0,0,0,0,0,0,0,-0.4,-0.3977,-0.4017,-0.4036,-0.4038,-0.405,-0.405,-0.4051,-0.408,-0.408,-0.4081,-0.4081,-0.4113,-0.4114,-0.4114,-0.4109,0,0,-0.4117,-0.4117,0,0,0,0,0,0,0,0,-0.3998,-0.4001,-0.4033,-0.4035,-0.4037,-0.4061,-0.4048,-0.407,-0.408,-0.4064,-0.4081,-0.4082,-0.4095,-0.4098,-0.4103,-0.411,-0.4112,-0.4117,-0.4117,-0.4118,-0.4118,0,0,0,0,0,0,0,-0.3997,-0.4,-0.403,-0.4033,-0.4036,-0.4042,-0.4046,-0.4052,-0.4076,-0.4065,-0.4068,-0.4071,-0.4097,-0.4102,-0.4104,-0.4112,-0.4117,-0.4118,-0.4118,-0.4118,-0.4115,-0.4114,0,0,0,0,0,0,-0.3992,-0.3998,-0.4029,-0.4031,-0.4019,-0.4042,-0.4047,-0.4053,-0.4076,-0.408,-0.4071,-0.4073,-0.41,-0.4103,-0.4105,-0.4098,-0.4118,-0.4119,-0.4119,-0.4115,-0.4115,-0.4114,0,0,0,0,0,0,-0.3991,-0.3995,-0.4027,-0.4015,-0.402,-0.4043,-0.4049,-0.4053,-0.4059,-0.408,-0.4085,-0.4072,-0.4101,-0.4104,-0.4107,-0.41,-0.4119,-0.412,-0.4116,-0.4115,-0.4114,-0.4086,0,0,0,0,0,0,-0.399,-0.3994,-0.3993,-0.4015,-0.402,-0.403,-0.4049,-0.4054,-0.406,-0.4063,-0.4083,-0.4086,-0.4101,-0.4106,-0.4108,-0.4101,-0.412,-0.4117,-0.4116,-0.4115,-0.4088,-0.4084,-0.4081,0,0,0,0,0,-0.3988,-0.3984,-0.3993,-0.3996,-0.402,-0.403,-0.4033,-0.4051,-0.406,-0.4058,-0.4072,-0.4086,-0.4101,-0.4106,-0.4109,-0.4102,-0.4117,-0.4116,-0.4115,-0.4089,-0.4085,-0.4082,0,0,0,0,0,0,-0.396,-0.3987,-0.3997,-0.4,-0.4012,-0.4034,-0.4033,-0.4046,-0.4056,-0.4057,-0.4079,-0.4083,-0.4084,-0.4094,-0.4099,-0.4097,-0.4111,-0.411,-0.409,-0.4087,-0.4084,-0.4081,-0.4121,0,0,0,0,0,-0.3954,-0.3961,-0.3984,-0.3984,-0.399,-0.401,-0.4015,-0.4028,-0.4041,-0.4047,-0.4061,-0.4072,-0.408,-0.4084,-0.4092,-0.409,-0.4093,-0.4086,-0.4083,-0.4081,-0.4079,-0.4076,-0.4073,-0.411,-0.411,-0.411,0,0,-0.3942,-0.3958,-0.3961,-0.3979,-0.399,-0.3995,-0.4014,-0.402,-0.4023,-0.4047,-0.4051,-0.4062,-0.4076,-0.4076,-0.4077,-0.4084,-0.407,-0.4079,-0.4077,-0.4077,-0.4075,-0.4071,-0.4068,-0.4109,-0.4109,-0.4109,0,0,-0.3922,-0.3936,-0.3936,-0.3947,-0.3963,-0.3977,-0.3976,-0.3997,-0.4005,-0.4009,-0.4027,-0.4031,-0.4044,-0.4052,-0.4059,-0.4041,-0.4053,-0.4043,-0.4026,-0.4023,-0.402,-0.4018,-0.4009,-0.4006,-0.4042,-0.4042,-0.4041,0,-0.3905,-0.3914,-0.3935,-0.3938,-0.3945,-0.3967,-0.3967,-0.3976,-0.3994,-0.3997,-0.4006,-0.402,-0.4032,-0.4033,-0.4029,-0.4034,-0.4033,-0.404,-0.4019,-0.4017,-0.4015,-0.4007,-0.4004,-0.404,-0.404,-0.404,-0.404,0,-0.3891,-0.3897,-0.3895,-0.3912,-0.3919,-0.392,-0.3939,-0.3943,-0.3955,-0.3968,-0.3971,-0.3985,-0.3996,-0.3997,-0.4009,-0.4,-0.4004,-0.4015,-0.4029,-0.4009,-0.4002,-0.4,-0.4038,-0.4038,-0.4039,-0.4039,0,0,-0.3855,-0.3882,-0.388,-0.3887,-0.3907,-0.3911,-0.3913,-0.3923,-0.3925,-0.3937,-0.3938,-0.3948,-0.3958,-0.3965,-0.3978,-0.3976,-0.3958,-0.3988,-0.3988,-0.398,-0.3946,-0.3936,-0.3932,-0.3967,-0.3967,-0.3966,-0.3944,0,-0.3837,-0.3842,-0.3859,-0.3859,-0.3863,-0.3884,-0.3885,-0.3897,-0.3908,-0.3913,-0.3925,-0.3931,-0.3945,-0.3949,-0.3948,-0.396,-0.3951,-0.3963,-0.3966,-0.3966,-0.396,-0.3929,-0.3919,-0.3897,-0.3942,-0.3941,-0.3941,0,-0.3817,-0.3826,-0.3826,-0.3843,-0.3846,-0.3847,-0.3857,-0.3862,-0.3874,-0.3882,-0.3889,-0.3904,-0.3905,-0.3919,-0.3921,-0.3928,-0.3931,-0.3937,-0.3937,-0.3936,-0.3951,-0.3926,-0.3891,-0.3887,-0.3937,-0.3938,-0.3938,0,-0.3788,-0.3801,-0.3802,-0.3807,-0.3828,-0.3828,-0.3836,-0.3849,-0.3854,-0.3862,-0.3865,-0.3874,-0.3878,-0.3884,-0.39,-0.3909,-0.3899,-0.3915,-0.3904,-0.3903,-0.39,-0.3899,-0.3863,-0.3904,-0.3905,-0.3905,-0.3905,0,-0.3765,-0.3763,-0.3789,-0.3789,-0.3787,-0.3807,-0.3804,-0.3815,-0.3826,-0.3828,-0.3847,-0.3848,-0.3869,-0.3873,-0.3885,-0.3883,-0.3886,-0.3891,-0.3894,-0.3888,-0.3887,-0.3889,-0.389,-0.3904,-0.3904,-0.3904,-0.3904,0,-0.3732,-0.3749,-0.3751,-0.377,-0.3775,-0.3772,-0.3788,-0.3789,-0.3801,-0.3803,-0.3804,-0.3823,-0.3827,-0.3844,-0.3853,-0.3861,-0.3855,-0.3862,-0.385,-0.3852,-0.3839,-0.384,-0.3801,-0.3796,-0.3843,-0.3842,-0.3842,0,-0.3716,-0.3715,-0.3733,-0.3736,-0.3743,-0.3748,-0.3752,-0.3771,-0.3775,-0.3788,-0.3786,-0.3792,-0.3798,-0.3804,-0.3818,-0.3824,-0.383,-0.3817,-0.3831,-0.3825,-0.3828,-0.3826,-0.3825,-0.3813,-0.3812,-0.3812,-0.3811,0,-0.3684,-0.3692,-0.3698,-0.3706,-0.3711,-0.3718,-0.3727,-0.3727,-0.3748,-0.3751,-0.3756,-0.376,-0.3769,-0.3774,-0.3782,-0.379,-0.3803,-0.3807,-0.3804,-0.3797,-0.3789,-0.3791,-0.3839,-0.3807,-0.3807,-0.3808,-0.3808,-0.3808,-0.3658,-0.3657,-0.3669,-0.3674,-0.3683,-0.369,-0.369,-0.3702,-0.3707,-0.3715,-0.3726,-0.3728,-0.3739,-0.3752,-0.3759,-0.376,-0.3768,-0.3765,-0.3764,-0.3762,-0.3758,-0.3791,-0.3762,-0.3762,-0.3762,-0.3763,-0.3763,0,-0.3625,-0.3634,-0.3639,-0.3649,-0.3653,-0.3666,-0.3675,-0.3677,-0.3679,-0.3688,-0.3693,-0.3698,-0.3702,-0.3716,-0.3722,-0.372,-0.3726,-0.3721,-0.372,-0.3721,-0.3752,-0.3753,-0.3716,-0.3716,-0.3716,-0.3716,-0.3716,-0.3716,-0.3609,-0.3607,-0.3616,-0.3619,-0.3627,-0.363,-0.3634,-0.364,-0.3647,-0.3651,-0.3655,-0.3664,-0.3674,-0.3681,-0.3685,-0.3689,-0.3689,-0.3681,-0.3687,-0.3715,-0.3719,-0.3724,-0.3724,-0.3682,-0.3681,-0.3655,-0.3655,-0.3655]},{"header":{"parameterUnit":"m.s-1","parameterCategory":1,"la1":30.2991,"la2":30.254,"lo1":-89.0895,"lo2":-89.0444,"dy":0.0017,"dx":0.0017,"nx":28,"ny":28,"refTime":"2024-10-15T03:00:00:Z","depth":0,"parameterNumber":3,"parameterNumberName":"V-component_of_WINDS"},"data":[0,0,0,0,0,0,0,0,0,0,0,0,0,0,0,0,0,0,0,0,0,0,0,0,0,0,0,0,0,0,0,0,0,0,0,0,0,0,0,0,0,0,0,0,0,0,0,0,0,0,0,0,0,0,0,0,0,0,0.6958,0.6959,0,0.6975,0.6975,0.6975,0.7025,0.7026,0.7027,0.7028,0.7043,0.7043,0.7042,0,0,0,0,0,0,0,0,0,0,0,0,0,0.6969,0.6969,0.6958,0.6959,0.6959,0.6975,0.6975,0.6975,0.7025,0.7026,0.7027,0.7029,0.7044,0.7043,0.7042,0,0,0,0,0,0,0,0,0,0,0,0,0,0.6973,0.6968,0.6958,0.6985,0.6988,0.6975,0.6975,0.6975,0.7024,0.7026,0.7028,0.7029,0.7044,0.7043,0.7042,0.7004,0,0,0.7039,0.7039,0,0,0,0,0,0,0,0,0.6973,0.6972,0.6981,0.6984,0.6986,0.7,0.6985,0.6985,0.7024,0.701,0.7028,0.703,0.7027,0.7028,0.7027,0.7004,0.7005,0.7039,0.7039,0.7038,0.7038,0,0,0,0,0,0,0,0.6972,0.6972,0.6965,0.6981,0.6984,0.6997,0.6999,0.6985,0.7009,0.7012,0.7015,0.7017,0.7029,0.7028,0.7028,0.7005,0.7039,0.7038,0.7038,0.7037,0.6953,0.6951,0,0,0,0,0,0,0.6968,0.6971,0.6964,0.6965,0.6983,0.6995,0.6998,0.6994,0.701,0.7014,0.7015,0.7019,0.7029,0.7029,0.7029,0.6986,0.7038,0.7037,0.7037,0.6954,0.6952,0.6951,0,0,0,0,0,0,0.6968,0.6967,0.6964,0.6969,0.697,0.6993,0.6988,0.6993,0.6992,0.7013,0.7017,0.701,0.703,0.703,0.701,0.6987,0.7037,0.7036,0.6956,0.6954,0.6951,0.6898,0,0,0,0,0,0,0.6968,0.6967,0.6952,0.6969,0.6969,0.6944,0.6987,0.6992,0.6991,0.6996,0.7009,0.7012,0.7031,0.7011,0.7009,0.6986,0.7035,0.6959,0.6955,0.6952,0.6902,0.6894,0.6887,0,0,0,0,0,0.6969,0.6936,0.6951,0.695,0.6952,0.6943,0.6943,0.6966,0.6989,0.6974,0.6988,0.7012,0.699,0.7008,0.7007,0.6983,0.696,0.6956,0.6953,0.6905,0.6895,0.6887,0,0,0,0,0,0,0.6915,0.6939,0.6956,0.6928,0.6933,0.6951,0.6934,0.6955,0.6954,0.6958,0.6987,0.699,0.6965,0.6973,0.6993,0.6948,0.6979,0.6975,0.6944,0.6935,0.6927,0.6926,0.7035,0,0,0,0,0,0.69,0.6891,0.6912,0.6885,0.6887,0.691,0.6907,0.6925,0.6931,0.6933,0.6945,0.695,0.6945,0.694,0.6936,0.6904,0.6907,0.6887,0.6879,0.6873,0.6869,0.6853,0.6845,0.6938,0.6938,0.6938,0,0,0.6869,0.6881,0.6873,0.6875,0.6881,0.6871,0.6911,0.6899,0.6892,0.6931,0.6913,0.6922,0.693,0.6903,0.6892,0.6909,0.6844,0.6868,0.6863,0.6862,0.6848,0.684,0.6832,0.6935,0.6936,0.6936,0,0,0.6807,0.6815,0.6794,0.68,0.6809,0.6825,0.682,0.6835,0.6843,0.6826,0.6855,0.6847,0.6837,0.6841,0.6842,0.6784,0.6807,0.6782,0.6743,0.6727,0.672,0.6714,0.6693,0.6685,0.6778,0.6778,0.6778,0,0.6767,0.6754,0.678,0.6767,0.6767,0.6803,0.6782,0.6786,0.6793,0.6793,0.6811,0.68,0.6807,0.6783,0.6769,0.6768,0.6764,0.678,0.6719,0.6713,0.6707,0.6688,0.668,0.6775,0.6775,0.6775,0.6776,0,0.6704,0.6694,0.6676,0.6683,0.6682,0.6664,0.6688,0.6683,0.6702,0.6715,0.6698,0.6708,0.6708,0.6703,0.672,0.6682,0.6692,0.6714,0.6746,0.6695,0.6677,0.667,0.677,0.6771,0.6772,0.6773,0,0,0.6608,0.6631,0.6624,0.6628,0.6642,0.6635,0.662,0.662,0.6615,0.6619,0.6607,0.6598,0.662,0.6621,0.6639,0.6625,0.6579,0.665,0.665,0.6636,0.6538,0.6521,0.6512,0.6595,0.6593,0.6592,0.6537,0,0.6549,0.6525,0.6549,0.6519,0.6511,0.6547,0.6533,0.654,0.6553,0.6548,0.6562,0.6556,0.6584,0.6585,0.6573,0.6587,0.656,0.6592,0.6584,0.6583,0.658,0.6503,0.6484,0.6432,0.6531,0.653,0.6529,0,0.6478,0.648,0.6449,0.6466,0.6464,0.6451,0.6454,0.6449,0.6458,0.6468,0.647,0.6493,0.648,0.6511,0.6493,0.6514,0.6513,0.6519,0.6518,0.6518,0.6552,0.65,0.6416,0.6408,0.6518,0.6519,0.652,0,0.6411,0.6406,0.6387,0.639,0.6409,0.64,0.6407,0.6418,0.6417,0.642,0.6419,0.642,0.642,0.642,0.6442,0.6463,0.6421,0.6455,0.643,0.6429,0.6419,0.6419,0.6332,0.6418,0.6418,0.6418,0.6418,0,0.6343,0.6323,0.6358,0.6346,0.6325,0.6354,0.6332,0.6344,0.6353,0.6345,0.6375,0.6367,0.6397,0.6392,0.6409,0.6392,0.6392,0.64,0.6405,0.6397,0.6396,0.6396,0.64,0.6416,0.6416,0.6417,0.6417,0,0.6264,0.6286,0.6269,0.6289,0.6294,0.6278,0.6295,0.6286,0.6301,0.629,0.6289,0.6313,0.6309,0.6332,0.6331,0.6343,0.6317,0.6328,0.6313,0.6317,0.629,0.6293,0.6201,0.619,0.6282,0.6281,0.628,0,0.6219,0.6205,0.6224,0.6221,0.6227,0.6222,0.6221,0.6249,0.6247,0.6258,0.6247,0.6245,0.6245,0.6236,0.6254,0.6254,0.6265,0.6233,0.6265,0.6258,0.6265,0.6265,0.6264,0.6226,0.6224,0.6224,0.6223,0,0.6137,0.6149,0.6147,0.615,0.6149,0.6152,0.6157,0.6153,0.6183,0.6179,0.6176,0.6176,0.6176,0.6174,0.6178,0.6186,0.6209,0.6213,0.6207,0.6199,0.6191,0.6195,0.6295,0.6214,0.6215,0.6216,0.6216,0.6217,0.6074,0.6063,0.6075,0.6073,0.608,0.6085,0.6077,0.6092,0.609,0.6092,0.6109,0.6102,0.6113,0.6121,0.6127,0.6122,0.6137,0.6128,0.6126,0.6124,0.6119,0.6192,0.6123,0.6123,0.6123,0.6123,0.6123,0,0.5993,0.6003,0.6001,0.6008,0.6006,0.603,0.6037,0.6034,0.6027,0.6036,0.6036,0.6032,0.603,0.6048,0.6049,0.6042,0.6053,0.6041,0.6042,0.6044,0.6105,0.611,0.6033,0.6033,0.6033,0.6033,0.6033,0.6033,0.5951,0.5935,0.5949,0.5937,0.5947,0.5941,0.5943,0.5948,0.5955,0.5949,0.5949,0.5961,0.5973,0.5976,0.5976,0.5981,0.598,0.5964,0.5973,0.603,0.6039,0.6048,0.6052,0.5964,0.5964,0.5912,0.5912,0.5912]}]]